�������l�o���
Date,Time,MP-1(��Sv/h),MP-2(��Sv/h),MP-3(��Sv/h),MP-4(��Sv/h),MP-5(��Sv/h),MP-6(��Sv/h),MP-7(��Sv/h),MP-8(��Sv/h),����,����(m/s),���J
2021/11/13,00:00,0.579,0.870,0.554,1.063,0.743,0.355,0.615,0.579,�k,3.5,��
2021/11/13,00:10,0.578,0.871,0.554,1.063,0.743,0.355,0.615,0.580,�k�k��,5.7,��
2021/11/13,00:20,0.580,0.871,0.552,1.064,0.745,0.355,0.615,0.579,�k��,6.1,��
2021/11/13,00:30,0.581,0.870,0.552,1.062,0.743,0.355,0.617,0.579,�k��,6.6,��
2021/11/13,00:40,0.581,0.871,0.554,1.063,0.745,0.356,0.616,0.577,���k��,6.3,��
2021/11/13,00:50,0.580,0.871,0.554,1.065,0.743,0.356,0.615,0.578,���k��,6.5,��
2021/11/13,01:00,0.581,0.871,0.552,1.065,0.745,0.356,0.615,0.578,���k��,6.2,��
2021/11/13,01:10,0.579,0.870,0.553,1.063,0.745,0.353,0.615,0.579,���k��,5.9,��
2021/11/13,01:20,0.579,0.869,0.553,1.063,0.744,0.356,0.615,0.579,���k��,7.0,��
2021/11/13,01:30,0.581,0.870,0.554,1.062,0.743,0.357,0.616,0.580,���k��,7.8,��
2021/11/13,01:40,0.579,0.869,0.553,1.063,0.743,0.354,0.616,0.578,��,9.4,��
2021/11/13,01:50,0.581,0.871,0.553,1.061,0.743,0.355,0.616,0.579,��,8.3,��
2021/11/13,02:00,0.580,0.868,0.553,1.060,0.745,0.356,0.616,0.577,��,7.6,��
2021/11/13,02:10,0.580,0.868,0.554,1.064,0.744,0.355,0.614,0.579,���k��,7.7,��
2021/11/13,02:20,0.581,0.870,0.554,1.064,0.744,0.356,0.615,0.578,�k��,6.4,��
2021/11/13,02:30,0.580,0.871,0.553,1.065,0.744,0.355,0.616,0.578,�k��,5.9,��
2021/11/13,02:40,0.582,0.870,0.553,1.064,0.743,0.354,0.615,0.578,�k��,5.9,��
2021/11/13,02:50,0.579,0.870,0.553,1.063,0.744,0.355,0.617,0.580,���k��,6.5,��
2021/11/13,03:00,0.580,0.869,0.554,1.063,0.744,0.356,0.616,0.579,���k��,5.4,��
2021/11/13,03:10,0.579,0.870,0.555,1.063,0.743,0.354,0.614,0.579,���k��,5.9,��
2021/11/13,03:20,0.580,0.869,0.553,1.064,0.745,0.353,0.616,0.580,���k��,7.5,��
2021/11/13,03:30,0.580,0.869,0.555,1.063,0.746,0.354,0.616,0.578,���k��,6.3,��
2021/11/13,03:40,0.581,0.872,0.554,1.064,0.744,0.355,0.616,0.579,���k��,4.7,��
2021/11/13,03:50,0.580,0.870,0.553,1.062,0.742,0.354,0.616,0.581,�k��,3.8,��
2021/11/13,04:00,0.580,0.868,0.553,1.063,0.745,0.354,0.615,0.579,�k�k��,3.2,��
2021/11/13,04:10,0.578,0.868,0.553,1.062,0.742,0.354,0.617,0.578,�k�k��,3.5,��
2021/11/13,04:20,0.578,0.869,0.556,1.064,0.744,0.354,0.616,0.579,�k�k��,6.0,��
2021/11/13,04:30,0.579,0.869,0.552,1.062,0.743,0.354,0.615,0.580,�k�k��,6.0,��
2021/11/13,04:40,0.581,0.871,0.554,1.063,0.743,0.354,0.616,0.578,�k�k��,6.0,��
2021/11/13,04:50,0.578,0.871,0.554,1.063,0.743,0.354,0.616,0.578,�k��,5.6,��
2021/11/13,05:00,0.578,0.872,0.554,1.065,0.744,0.355,0.614,0.581,�k��,4.3,��
2021/11/13,05:10,0.581,0.871,0.553,1.066,0.744,0.354,0.616,0.579,�k��,4.8,��
2021/11/13,05:20,0.580,0.871,0.551,1.065,0.743,0.354,0.615,0.578,�k�k��,4.6,��
2021/11/13,05:30,0.580,0.871,0.555,1.064,0.744,0.355,0.615,0.579,�k,4.3,��
2021/11/13,05:40,0.579,0.871,0.553,1.063,0.742,0.355,0.615,0.578,�k,4.9,��
2021/11/13,05:50,0.581,0.871,0.553,1.064,0.744,0.353,0.614,0.580,�k�k��,6.0,��
2021/11/13,06:00,0.582,0.870,0.554,1.062,0.743,0.354,0.616,0.578,�k�k��,4.5,��
2021/11/13,06:10,0.580,0.870,0.553,1.064,0.744,0.354,0.616,0.579,�k�k��,4.1,��
2021/11/13,06:20,0.583,0.869,0.553,1.064,0.744,0.355,0.615,0.579,�k��,4.8,��
2021/11/13,06:30,0.580,0.870,0.552,1.063,0.745,0.353,0.614,0.578,�k��,5.8,��
2021/11/13,06:40,0.580,0.870,0.554,1.064,0.745,0.354,0.615,0.579,�k��,5.3,��
2021/11/13,06:50,0.578,0.871,0.552,1.061,0.745,0.354,0.617,0.578,�k�k��,5.8,��
2021/11/13,07:00,0.579,0.870,0.553,1.065,0.745,0.354,0.615,0.578,�k��,6.5,��
2021/11/13,07:10,0.581,0.870,0.552,1.064,0.746,0.354,0.615,0.577,�k��,7.0,��
2021/11/13,07:20,0.579,0.868,0.553,1.061,0.744,0.353,0.614,0.579,�k��,5.6,��
2021/11/13,07:30,0.578,0.872,0.553,1.062,0.743,0.355,0.615,0.579,�k��,5.6,��
2021/11/13,07:40,0.582,0.870,0.552,1.064,0.742,0.354,0.614,0.579,���k��,5.5,��
2021/11/13,07:50,0.580,0.871,0.553,1.064,0.744,0.353,0.615,0.580,�k��,4.6,��
2021/11/13,08:00,0.580,0.871,0.554,1.067,0.744,0.354,0.615,0.580,�k��,6.8,��
2021/11/13,08:10,0.581,0.870,0.553,1.064,0.745,0.353,0.616,0.580,�k��,3.5,��
2021/11/13,08:20,0.580,0.872,0.554,1.064,0.745,0.354,0.616,0.580,���k��,3.6,��
2021/11/13,08:30,0.580,0.873,0.554,1.066,0.745,0.354,0.614,0.579,�k��,3.3,��
2021/11/13,08:40,0.580,0.871,0.554,1.063,0.745,0.355,0.615,0.580,�k��,3.1,��
2021/11/13,08:50,0.579,0.871,0.553,1.064,0.744,0.354,0.615,0.579,��,2.9,��
2021/11/13,09:00,0.580,0.871,0.552,1.066,0.743,0.355,0.614,0.579,���k��,3.9,��
2021/11/13,09:10,0.581,0.870,0.553,1.065,0.744,0.355,0.614,0.578,��,5.6,��
2021/11/13,09:20,0.579,0.870,0.554,1.065,0.743,0.354,0.616,0.579,���k��,7.4,��
2021/11/13,09:30,0.582,0.870,0.553,1.065,0.746,0.356,0.614,0.581,���k��,5.9,��
2021/11/13,09:40,0.577,0.870,0.554,1.065,0.746,0.355,0.615,0.578,���k��,6.3,��
2021/11/13,09:50,0.580,0.870,0.555,1.065,0.744,0.357,0.616,0.579,���k��,5.8,��
2021/11/13,10:00,0.581,0.869,0.555,1.066,0.746,0.356,0.614,0.579,���k��,6.4,��
2021/11/13,10:10,0.580,0.869,0.554,1.067,0.744,0.356,0.614,0.580,���k��,5.8,��
2021/11/13,10:20,0.579,0.868,0.555,1.066,0.745,0.354,0.614,0.581,���k��,6.1,��
2021/11/13,10:30,0.581,0.870,0.554,1.065,0.745,0.355,0.615,0.580,���k��,6.6,��
2021/11/13,10:40,0.580,0.871,0.554,1.066,0.745,0.355,0.615,0.582,��,6.7,��
2021/11/13,10:50,0.581,0.871,0.555,1.066,0.745,0.355,0.616,0.582,���k��,6.9,��
2021/11/13,11:00,0.579,0.870,0.556,1.064,0.745,0.354,0.616,0.581,��,5.8,��
2021/11/13,11:10,0.580,0.871,0.555,1.065,0.745,0.353,0.616,0.581,��,7.1,��
2021/11/13,11:20,0.583,0.873,0.554,1.067,0.743,0.354,0.617,0.581,��,8.3,��
2021/11/13,11:30,0.582,0.874,0.554,1.065,0.745,0.353,0.616,0.580,��,8.2,��
2021/11/13,11:40,0.582,0.870,0.556,1.065,0.744,0.355,0.616,0.582,��,6.4,��
2021/11/13,11:50,0.582,0.872,0.554,1.068,0.745,0.356,0.615,0.580,��,7.9,��
2021/11/13,12:00,0.581,0.874,0.554,1.066,0.743,0.355,0.616,0.581,��,7.1,��
2021/11/13,12:10,0.581,0.870,0.554,1.068,0.746,0.356,0.616,0.580,��,6.5,��
2021/11/13,12:20,0.582,0.872,0.554,1.066,0.745,0.356,0.616,0.579,���쐼,6.8,��
2021/11/13,12:30,0.580,0.872,0.553,1.067,0.745,0.355,0.616,0.578,���쐼,6.9,��
2021/11/13,12:40,0.581,0.874,0.555,1.066,0.746,0.357,0.616,0.578,���쐼,6.2,��
2021/11/13,12:50,0.582,0.872,0.555,1.067,0.746,0.356,0.616,0.577,���쐼,7.1,��
2021/11/13,13:00,0.582,0.872,0.552,1.068,0.747,0.355,0.616,0.578,���쐼,4.7,��
2021/11/13,13:10,0.582,0.871,0.554,1.067,0.748,0.356,0.614,0.578,���쐼,3.8,��
2021/11/13,13:20,0.581,0.873,0.554,1.069,0.747,0.356,0.615,0.579,��,5.5,��
2021/11/13,13:30,0.583,0.871,0.556,1.068,0.745,0.355,0.615,0.579,���k��,6.2,��
2021/11/13,13:40,0.582,0.873,0.553,1.069,0.746,0.356,0.615,0.580,���k��,5.9,��
2021/11/13,13:50,0.582,0.873,0.554,1.067,0.747,0.356,0.615,0.579,���k��,5.2,��
2021/11/13,14:00,0.582,0.874,0.554,1.069,0.749,0.355,0.615,0.579,��,6.0,��
2021/11/13,14:10,0.581,0.872,0.554,1.069,0.746,0.356,0.615,0.579,��,5.5,��
2021/11/13,14:20,0.581,0.874,0.554,1.069,0.745,0.356,0.614,0.578,��,4.8,��
2021/11/13,14:30,0.583,0.873,0.553,1.068,0.745,0.355,0.616,0.578,��,4.9,��
2021/11/13,14:40,0.582,0.874,0.555,1.069,0.745,0.355,0.615,0.580,���쐼,6.3,��
2021/11/13,14:50,0.581,0.874,0.554,1.067,0.748,0.354,0.616,0.578,���쐼,6.2,��
2021/11/13,15:00,0.583,0.873,0.554,1.068,0.746,0.355,0.616,0.577,��,6.0,��
2021/11/13,15:10,0.582,0.873,0.554,1.070,0.748,0.357,0.617,0.577,��,6.1,��
2021/11/13,15:20,0.579,0.873,0.554,1.071,0.747,0.355,0.616,0.577,���쐼,5.6,��
2021/11/13,15:30,0.580,0.874,0.553,1.070,0.749,0.355,0.616,0.578,��,5.8,��
2021/11/13,15:40,0.581,0.875,0.554,1.069,0.748,0.356,0.615,0.581,��,3.1,��
2021/11/13,15:50,0.582,0.876,0.555,1.069,0.749,0.357,0.615,0.582,��,4.9,��
2021/11/13,16:00,0.581,0.877,0.553,1.068,0.747,0.356,0.617,0.581,���k��,4.6,��
2021/11/13,16:10,0.580,0.875,0.554,1.070,0.746,0.356,0.615,0.582,��,4.2,��
2021/11/13,16:20,0.581,0.877,0.556,1.069,0.748,0.356,0.616,0.580,��,4.2,��
2021/11/13,16:30,0.579,0.876,0.555,1.068,0.747,0.356,0.617,0.581,��,3.6,��
2021/11/13,16:40,0.580,0.873,0.556,1.069,0.747,0.356,0.616,0.581,��,3.6,��
2021/11/13,16:50,0.581,0.875,0.554,1.067,0.747,0.355,0.616,0.579,��,3.5,��
2021/11/13,17:00,0.581,0.874,0.556,1.069,0.748,0.357,0.616,0.580,��,3.9,��
2021/11/13,17:10,0.581,0.874,0.555,1.069,0.750,0.357,0.617,0.580,���k��,4.6,��
2021/11/13,17:20,0.583,0.875,0.556,1.070,0.749,0.357,0.617,0.581,���k��,4.0,��
2021/11/13,17:30,0.583,0.875,0.554,1.067,0.749,0.355,0.615,0.580,���k��,3.2,��
2021/11/13,17:40,0.581,0.875,0.555,1.070,0.750,0.355,0.617,0.580,��,2.0,��
2021/11/13,17:50,0.582,0.875,0.553,1.068,0.748,0.356,0.617,0.579,���k��,3.8,��
2021/11/13,18:00,0.582,0.875,0.555,1.067,0.749,0.355,0.616,0.580,���k��,5.0,��
2021/11/13,18:10,0.582,0.874,0.556,1.069,0.751,0.354,0.614,0.581,���k��,5.7,��
2021/11/13,18:20,0.584,0.874,0.553,1.069,0.751,0.356,0.615,0.579,���k��,5.4,��
2021/11/13,18:30,0.582,0.872,0.555,1.069,0.749,0.356,0.617,0.580,���k��,4.6,��
2021/11/13,18:40,0.582,0.873,0.555,1.068,0.748,0.355,0.616,0.579,���k��,3.3,��
2021/11/13,18:50,0.581,0.875,0.555,1.068,0.748,0.356,0.615,0.579,��,2.3,��
2021/11/13,19:00,0.581,0.872,0.555,1.068,0.750,0.355,0.617,0.579,��,2.0,��
2021/11/13,19:10,0.582,0.875,0.555,1.070,0.750,0.355,0.614,0.579,�쐼,1.2,��
2021/11/13,19:20,0.583,0.874,0.557,1.069,0.749,0.354,0.615,0.579,��쐼,1.7,��
2021/11/13,19:30,0.582,0.874,0.555,1.067,0.749,0.354,0.616,0.580,��,1.9,��
2021/11/13,19:40,0.583,0.874,0.555,1.068,0.748,0.355,0.615,0.580,��,1.4,��
2021/11/13,19:50,0.582,0.873,0.556,1.068,0.749,0.355,0.615,0.579,��,1.2,��
2021/11/13,20:00,0.581,0.873,0.555,1.069,0.748,0.355,0.615,0.580,��쐼,2.3,��
2021/11/13,20:10,0.581,0.876,0.555,1.071,0.749,0.354,0.616,0.579,��쐼,2.9,��
2021/11/13,20:20,0.583,0.874,0.553,1.070,0.747,0.355,0.614,0.579,��쐼,3.2,��
2021/11/13,20:30,0.582,0.876,0.554,1.068,0.748,0.356,0.615,0.578,��쐼,3.4,��
2021/11/13,20:40,0.581,0.874,0.555,1.068,0.748,0.353,0.616,0.581,�쐼,3.5,��
2021/11/13,20:50,0.581,0.874,0.554,1.071,0.748,0.354,0.615,0.579,�쐼,3.2,��
2021/11/13,21:00,0.583,0.874,0.556,1.068,0.749,0.355,0.615,0.580,�쐼,2.6,��
2021/11/13,21:10,0.582,0.873,0.555,1.068,0.748,0.355,0.615,0.579,���쐼,2.3,��
2021/11/13,21:20,0.583,0.874,0.555,1.069,0.745,0.354,0.616,0.579,��,3.9,��
2021/11/13,21:30,0.581,0.873,0.554,1.069,0.747,0.354,0.616,0.579,��,3.7,��
2021/11/13,21:40,0.583,0.873,0.555,1.070,0.750,0.354,0.614,0.580,�k��,2.9,��
2021/11/13,21:50,0.582,0.874,0.556,1.070,0.748,0.354,0.615,0.579,���k��,2.2,��
2021/11/13,22:00,0.580,0.873,0.553,1.070,0.749,0.354,0.615,0.579,��,1.9,��
2021/11/13,22:10,0.582,0.873,0.555,1.068,0.747,0.355,0.614,0.579,��,1.4,��
2021/11/13,22:20,0.581,0.874,0.554,1.068,0.748,0.355,0.615,0.580,��,1.5,��
2021/11/13,22:30,0.582,0.873,0.555,1.069,0.749,0.354,0.616,0.580,���쐼,1.7,��
2021/11/13,22:40,0.583,0.873,0.554,1.071,0.749,0.355,0.615,0.580,�쐼,1.7,��
2021/11/13,22:50,0.581,0.873,0.554,1.069,0.748,0.356,0.615,0.580,�쐼,1.7,��
2021/11/13,23:00,0.582,0.875,0.555,1.066,0.750,0.355,0.615,0.578,�쐼,2.6,��
2021/11/13,23:10,0.582,0.873,0.556,1.067,0.751,0.355,0.615,0.578,��쐼,3.1,��
2021/11/13,23:20,0.582,0.873,0.556,1.070,0.750,0.355,0.615,0.579,��쐼,2.5,��
2021/11/13,23:30,0.583,0.874,0.554,1.071,0.749,0.355,0.615,0.580,��,2.6,��
2021/11/13,23:40,0.581,0.873,0.554,1.069,0.750,0.355,0.616,0.580,��,3.3,��
2021/11/13,23:50,0.582,0.873,0.554,1.068,0.750,0.355,0.614,0.579,��,3.6,��
